Sidney, NE

5:05 AM MST on January 19, 2018 (GMT -0700)
Sidney Municipal

Weather History for KSNY - November, 2012

Change the Weather History Date:

Friday, November 9, 2012

  Actual Average Record
Temperature  
Mean Temperature 42 °F 41 °F  
Max Temperature 54 °F 55 °F 72 °F (1978)
Min Temperature 29 °F 27 °F 3 °F (1966)
Degree Days  
Heating Degree Days 23 24  
Month to date heating degree days 163 202  
Since 1 July heating degree days 833 805  
Cooling Degree Days 0 0  
Month to date cooling degree days 0 0  
Year to date cooling degree days 1165 830  
Moisture  
Dew Point 32 °F    
Average Humidity 73    
Maximum Humidity 96    
Minimum Humidity 50    
Precipitation  
Precipitation 0.00 in 0.01 in 0.44 in (1994)
Month to date precipitation 0.00 0.16  
Year to date precipitation 6.98 17.59  
Sea Level Pressure  
Sea Level Pressure 29.70 in    
Wind  
Wind Speed 10 mph (ESE)    
Max Wind Speed 17 mph    
Max Gust Speed 21 mph    
Visibility 5 miles    
Events Fog    
T = Trace of Precipitation, MM = Missing Value Source: NWS Daily Summary

Daily Weather History Graph

Daily Weather History Graph

Search for Another Location

Airport or City:

Trip Planner

Search our weather history database for the weather conditions in past years. The results will help you decide how hot, cold, wet, or windy it might be!

Date:

Astronomy

Nov. 09, 2012 Rise Set
Actual Time 6:33 AM MST 4:38 PM MST
Civil Twilight 6:03 AM MST 5:07 PM MST
Nautical Twilight 5:30 AM MST 5:40 PM MST
Astronomical Twilight 4:58 AM MST 6:12 PM MST
Moon 1:32 AM MST (11/9) 1:54 PM MST (11/9)
Length of Visible Light 11h 03m
Length of Day
10h 04m
Waning Crescent, 22% of the Moon is Illuminated
Nov 9
Waning Crescent
Nov 13
New
Nov 20
First Quarter
Nov 28
Full
Dec 6
Last Quarter

Hourly Weather History & Observations

Time (MST) Temp. Windchill Dew Point Humidity Pressure Visibility Wind Dir Wind Speed Gust Speed Precip Events Conditions
12:53 AM 30.9 °F 25.2 °F 28.0 °F 89% 29.82 in 10.0 mi ESE 5.8 mph - N/A   Clear
1:53 AM 33.1 °F 26.9 °F 30.0 °F 89% 29.79 in 10.0 mi ESE 6.9 mph - N/A   Clear
2:53 AM 30.9 °F 27.5 °F 28.0 °F 89% 29.80 in 10.0 mi ESE 3.5 mph - N/A   Clear
3:53 AM 33.1 °F 25.5 °F 30.9 °F 92% 29.78 in 10.0 mi ESE 9.2 mph - N/A   Clear
4:53 AM 34.0 °F 25.5 °F 30.9 °F 89% 29.79 in 9.0 mi SE 11.5 mph - N/A   Clear
5:18 AM 33.8 °F 25.8 °F 30.2 °F 87% 29.78 in 5.0 mi ESE 10.4 mph - N/A   Scattered Clouds
5:27 AM 33.8 °F 25.8 °F 30.2 °F 87% 29.77 in 4.0 mi ESE 10.4 mph - N/A   Mostly Cloudy
5:37 AM 32.0 °F 23.6 °F 30.2 °F 93% 29.77 in 1.8 mi ESE 10.4 mph - N/A   Overcast
5:44 AM 32.0 °F 23.6 °F 30.2 °F 93% 29.78 in 0.8 mi ESE 10.4 mph - N/A   Overcast
5:53 AM 32.0 °F 24.2 °F 30.9 °F 96% 29.81 in 0.8 mi ESE 9.2 mph - N/A   Mist
6:06 AM 32.0 °F 24.2 °F 30.2 °F 93% 29.77 in 1.2 mi ESE 9.2 mph - N/A   Overcast
6:26 AM 32.0 °F 22.5 °F 30.2 °F 93% 29.77 in 3.0 mi ESE 12.7 mph - N/A   Overcast
6:53 AM 32.0 °F 23.6 °F 30.9 °F 96% 29.82 in 2.5 mi ESE 10.4 mph - N/A   Overcast
7:23 AM 32.0 °F 23.0 °F 30.2 °F 93% 29.78 in 1.5 mi ESE 11.5 mph - N/A   Overcast
7:53 AM 33.1 °F 24.4 °F 30.9 °F 92% 29.82 in 1.5 mi ESE 11.5 mph - N/A   Overcast
8:04 AM 33.8 °F 27.0 °F 32.0 °F 93% 29.79 in 3.0 mi ESE 8.1 mph - N/A   Overcast
8:15 AM 33.8 °F 26.4 °F 30.2 °F 87% 29.79 in 2.5 mi ESE 9.2 mph - N/A   Overcast
8:26 AM 33.8 °F 24.8 °F 30.2 °F 87% 29.78 in 4.0 mi SE 12.7 mph - N/A   Overcast
8:44 AM 33.8 °F 25.3 °F 32.0 °F 93% 29.79 in 4.0 mi SE 11.5 mph - N/A   Overcast
8:53 AM 35.1 °F 27.9 °F 32.0 °F 89% 29.83 in 4.0 mi SE 9.2 mph - N/A   Overcast
9:37 AM 37.4 °F 29.3 °F 33.8 °F 87% 29.77 in 7.0 mi SSE 12.7 mph - N/A   Overcast
9:53 AM 37.9 °F 30.5 °F 32.0 °F 79% 29.80 in 8.0 mi SE 11.5 mph - N/A   Mostly Cloudy
10:07 AM 39.2 °F 33.6 °F 32.0 °F 75% 29.76 in 8.0 mi SE 8.1 mph - N/A   Partly Cloudy
10:53 AM 39.9 °F 35.1 °F 32.0 °F 73% 29.76 in 9.0 mi SSE 6.9 mph - N/A   Clear
11:53 AM 45.0 °F 39.3 °F 34.0 °F 65% 29.71 in 10.0 mi SE 11.5 mph - N/A   Clear
12:53 PM 48.9 °F - 35.1 °F 59% 29.67 in 10.0 mi SE 11.5 mph - N/A   Clear
1:53 PM 52.0 °F - 35.1 °F 53% 29.64 in 10.0 mi SE 10.4 mph - N/A   Clear
2:53 PM 53.1 °F - 35.1 °F 50% 29.63 in 10.0 mi SSE 12.7 mph - N/A   Clear
3:53 PM 52.0 °F - 34.0 °F 50% 29.61 in 10.0 mi SE 12.7 mph - N/A   Clear
4:53 PM 45.0 °F 40.1 °F 33.1 °F 63% 29.62 in 10.0 mi ESE 9.2 mph - N/A   Clear
5:53 PM 41.0 °F 35.8 °F 33.1 °F 73% 29.65 in 10.0 mi ESE 8.1 mph - N/A   Clear
6:53 PM 36.0 °F 29.6 °F 30.9 °F 82% 29.66 in 10.0 mi East 8.1 mph - N/A   Clear
7:53 PM 34.0 °F 26.0 °F 30.9 °F 89% 29.64 in 7.0 mi ESE 10.4 mph - N/A   Clear
8:53 PM 34.0 °F 26.6 °F 30.9 °F 89% 29.62 in 6.0 mi ESE 9.2 mph - N/A   Clear
9:53 PM 32.0 °F 24.8 °F 30.0 °F 92% 29.61 in 3.0 mi East 8.1 mph - N/A   Clear
10:00 PM 32.0 °F 24.2 °F 30.2 °F 93% 29.57 in 2.5 mi East 9.2 mph - N/A   Clear
10:12 PM 32.0 °F 24.8 °F 30.2 °F 93% 29.57 in 2.0 mi ESE 8.1 mph - N/A   Scattered Clouds
10:18 PM 33.8 °F 26.4 °F 30.2 °F 87% 29.57 in 1.8 mi SE 9.2 mph - N/A   Mostly Cloudy
10:25 PM 33.8 °F 25.3 °F 32.0 °F 93% 29.57 in 0.8 mi SE 11.5 mph - N/A   Mist
10:53 PM 34.0 °F 25.5 °F 32.0 °F 92% 29.58 in 0.5 mi SE 11.5 mph - N/A Fog Fog
11:16 PM 33.8 °F 28.6 °F 32.0 °F 93% 29.55 in 1.2 mi SE 5.8 mph - N/A   Overcast
11:26 PM 33.8 °F 27.0 °F 33.8 °F 100% 29.54 in 2.0 mi ESE 8.1 mph - N/A   Overcast
11:38 PM 35.6 °F 27.5 °F 33.8 °F 93% 29.54 in 1.2 mi SE 11.5 mph - N/A   Overcast
11:41 PM 35.6 °F 27.1 °F 33.8 °F 93% 29.54 in 0.8 mi SE 12.7 mph - N/A   Overcast
11:53 PM 35.1 °F 26.9 °F 34.0 °F 96% 29.55 in 0.5 mi SE 11.5 mph - N/A Fog Fog